127  
ASUS41 KAKQ 230815  
RWRAKQ  
 
REGIONAL WEATHER ROUNDUP  
NATIONAL WEATHER SERVICE WAKEFIELD VA  
300 AM EST FRI FEB 23 2018  
 
NOTE: "FAIR" INDICATES FEW OR NO CLOUDS BELOW 12,000 FEET WITH NO  
SIGNIFICANT WEATHER AND/OR S TO VISIBILITY
. * = DENOTES  
STATION MAY NOT REPORT PRECIPITATION (E.G., RAIN,SNOW,ETC.),
 
THUNDER OR FOG.  
 
VAZ042-051-052>054-056-230900-  
NORTHERN VIRGINIA  
 
CITY SKY/WX TMP DP RH WIND PRES REMARKS
 
WASH NATIONAL CLOUDY 42 38 85 E8 30.59S  
DULLES CLOUDY 40 40 100 E5 30.58R FOG  
FORT BELVOIR LGT RAIN 41 37 87 CALM 30.59S  
QUANTICO DRIZZLE 43 41 93 E8 30.60S  
FREDERICKSBRG* CLOUDY 42 42 100 NE7 30.58S  
STAFFORD* DRIZZLE 41 41 100 NE5 30.62S  
WARRENTON CLOUDY 42 38 88 NE5 30.57F FOG  
CULPEPER* CLOUDY 42 40 93 E3 30.58F FOG  
MANASSAS* LGT RAIN 41 39 93 E6 30.59F FOG  
LEESBURG* CLOUDY 37 37 100 SE5 30.59F  
WINCHESTER CLOUDY 37 37 100 E6 30.57S FOG  
FRONT ROYAL* CLOUDY 39 39 100 E5 30.54F  
LURAY* CLOUDY 41 41 100 NE3 30.53F FOG  

 
 
VAZ048-049-060>072-079>083-230900-  
CENTRAL AND SOUTH CENTRAL VIRGINIA  
 
CITY SKY/WX TMP DP RH WIND PRES REMARKS
 
RICHMOND DRIZZLE 43 42 97 NE9 30.55S FOG  
CHESTERFIELD* CLOUDY 44 43 96 NE6 30.55R FOG  
PETERSBURG* CLOUDY 46 44 93 NE7 30.54S FOG  
HANOVER CLOUDY 43 42 97 VRB5 30.57R FOG  
TAPPAHANNOCK* CLOUDY 42 41 98 N5 30.57S FOG  
QUINTON* CLOUDY 42 42 100 CALM 30.54F  
CHARLOTTSVILLE CLOUDY 44 42 93 NE7 30.54F FOG  
GORDONSVILLE* CLOUDY 42 42 100 NE6 30.55F FOG  
ORANGE* DRIZZLE 41 41 100 CALM 30.56F  
LOUISA* RAIN 42 41 97 NE8 30.59F FOG  
BUMPASS* NOT AVBL  
FARMVILLE* CLOUDY N/A N/A N/A NE8 30.52F HAZE  
CREWE* CLOUDY 46 46 100 NE5 30.53R  
FORT PICKETT* CLOUDY 46 46 100 NE8 30.52R  
CHASE CITY* CLOUDY 49 49 100 NE3 30.51R  
CLARKSVILLE* CLOUDY 50 50 100 N5 30.50R  
SOUTH HILL* CLOUDY 47 47 100 NE5 30.55F  
LAWRENCEVILLE* CLOUDY 46 46 97 E5 30.51F  
EMPORIA* CLOUDY 46 45 93 N7 30.53F  

 
 
VAZ088>098-230900-  
SOUTHEAST VIRGINIA  
 
CITY SKY/WX TMP DP RH WIND PRES REMARKS
 
NORFOLK CLOUDY 46 45 96 N10 30.52R FOG  
VIRGINIA BEACH FOG 45 43 93 N9 30.51R VSB 1/2  
NORFOLK NAVAL CLOUDY 45 43 93 N15 30.54R FOG  
WEST POINT* CLOUDY 42 41 95 NE3 30.56F  
SALUDA* CLOUDY 42 42 100 NE7 30.55F  
NEWPORT NEWS CLOUDY 44 42 93 N9 30.54R FOG  
LANGLEY AFB CLOUDY 44 44 99 N13 30.53S FOG  
FORT EUSTIS CLOUDY 44 43 94 N7 30.52R  
WILLIAMSBURG* CLOUDY 46 45 93 NE5 30.55S  
HR EXEC AP* CLOUDY 45 44 97 NE8 30.53S FOG  
FRANKLIN* CLOUDY 45 45 98 NE9 30.53S FOG  
US460-WAKEFLD CLOUDY 46 46 100 VRB3 30.53S FOG  

 
 
VAZ020-022-025-037-045-230900-  
WEST CENTRAL AND SOUTHWEST VIRGINIA  
 
CITY SKY/WX TMP DP RH WIND PRES REMARKS
 
STAUNTON* CLOUDY 40 40 99 CALM 30.54F FOG  
WAYNESBORO* CLOUDY 41 41 99 CALM 30.50F  
HOT SPRINGS VA DRZL/FOG 52 52 100 S8 30.46F VSB 1/4  
LYNCHBURG CLOUDY 44 43 96 NE10 30.51S  
DANVILLE CLOUDY 51 49 92 NE8 30.49R  
SOUTH BOSTON* CLOUDY 51 49 95 NE5 30.50R  
MARTINSVILLE CLOUDY 53 47 81 NE7 30.49F  
ROANOKE CLOUDY 50 46 86 SE9 30.50S  
BLACKSBURG CLOUDY 53 51 92 SE6 30.48S  
DUBLIN* CLOUDY 58 55 89 E9 30.44S  
MARION* FAIR 56 53 91 CALM 30.44F FOG  
HILLSVILLE* CLOUDY 58 57 96 SE6 30.43S  
RICHLANDS* FAIR 60 55 83 S5 30.42S  
WISE* FAIR 61 55 82 S3 30.42S  
ABINGDON* FAIR 56 54 92 CALM 30.40F  

 
 
MDZ021>025-VAZ099-100-230900-  
SOUTHERN MARYLAND AND THE DELMARVA PENINSULA  
 
CITY SKY/WX TMP DP RH WIND PRES REMARKS
 
PATUXENT RIVER CLOUDY 41 40 96 NE10 30.56S  
BAY BRIDGE APT CLOUDY 41 37 87 NE5 30.59S  
LEONARDTOWN CLOUDY 39 37 93 NE5 30.59R  
DOVER CLOUDY 40 36 86 NE9 30.59F  
GEORGETOWN CLOUDY 41 38 89 NE16 30.59R  
EASTON MOCLDY 41 37 86 E6 30.61F  
CAMBRIDGE CLOUDY 41 39 93 NE7 30.57S FOG  
SALISBURY LGT RAIN 42 41 96 NE12 30.56S FOG  
OCEAN CITY CLOUDY 42 41 96 NE13 30.57R FOG  
WALLOPS ISLAND CLOUDY 46 43 89 NE18 30.55S  
ACCOMACK* CLOUDY 45 44 97 NE8 30.54R FOG  

 
 
NCZ012>017-030>032-230900-  
NORTH CENTRAL AND EASTERN NORTH CAROLINA  
 
CITY SKY/WX TMP DP RH WIND PRES REMARKS
 
ROANOKE RAPIDS CLOUDY 48 48 100 NE3 30.50S FOG  
RALEIGH MOCLDY 62 60 93 NE5 30.45R  
ELIZABETH CITY CLOUDY 48 48 100 N10 30.50S FOG  
AHOSKIE* CLOUDY 47 47 100 N9 30.52R FOG  
EDENTON* CLOUDY 49 48 96 N7 30.50S FOG  
CURRITUCK* CLOUDY 46 45 98 N9 30.50S FOG  
KILL DEVIL HLS FOG N/A N/A N/A N6 30.46F VSB 1/2  
MANTEO NOT AVBL  
CAPE HATTERAS MOCLDY 59 58 96 N5 30.46F  
TARBORO* NOT AVBL  
GOLDSBORO FAIR 61 60 96 CALM 30.42S  
WASHINGTON CLOUDY 55 53 94 NE6 30.46S  
GREENVILLE CLOUDY 57 55 94 NE6 30.46R  
NEW BERN CLOUDY 62 61 96 CALM 30.45S  
WILMINGTON FAIR 57 57 100 CALM 30.43F FOG  

 
 
VAZ048-230900-  
ELSEWHERE  
 
CITY SKY/WX TMP DP RH WIND PRES REMARKS
 
HARRISBURG PA LGT RAIN 38 36 92 SE7 30.59F FOG  
BALTIMORE LGT RAIN 40 40 100 NE9 30.59S FOG  
ANNAPOLIS CLOUDY 43 40 89 NE6 30.58F  
ANDREWS AFB DRIZZLE 40 37 90 NE7 30.58R  
PHILADELPHIA CLOUDY 38 35 89 E10G18 30.62S  
HENDERSON NC FOG 49 48 97 NE9 30.47F VSB 1  
GREENSBORO CLOUDY 58 55 90 NE12 30.44R  
ROCKY MOUNT CLOUDY 55 53 93 NE10 30.47R  

 
 
VAZ100-230900-  
MARINE  
 
STATION/POSITION TIME TEMP WIND PRES WAVE SWELL
 
AIR SEA DIR/SP/G HT/PER HT/PER  
(UTC) (F) (DEG/KT/KT) (MB) (FT/S) (FT/S)  
BRANDYWINE LGT 0742 41 70/ 17/ 22 1035.5F  
CAPE MAY NJ 0748 40 44 70/ 8/ 15 1034.6F  
LEWES DE 0748 41 43 70/ 17/ 20 1035.2F  
15NM E FENWICK I 0750 44 43 30/ 19/ 25 1034.2F 9/ 8 3/14  
OCEAN-CITY-INLET 0748 42 41 50/ 6/ 12 1035.3F  
WACHAPREAGUE VA 0748 45 52 30/ 12/ 20 1033.9R  
THOMAS POINT MD 0800 40 42 70/ 6/ 7 N/A  
GOOSES REEF MD 0800 41 42 90/ 10/ 12 1030.7 1/ 2  
COVE POINT MD 0748 40 50/ 8/ 10 1036.0F  
SOLOMONS ISLAND 0748 40 44 30/ 4/ 8 1035.1F  
BISHOPS HEAD MD 0748 42 48 50/ 9/ 14 1034.9F  
PINEY POINT MD 0748 60/ 5/ 7 N/A  
POTOMAC MD 0800 40 42 280/ 10/ 12 1034.2 1/ 2  
CAMBRIDGE MD 0748 41 48 1036.0F  
LEWISETTA VA 0748 41 49 70/ 9/ 12 1034.8F  
RAPPAHANNOCK LGT 0748 10/ 15/ 17 1034.8R  
YORK RVR RNG VA 0748 30/ 13/ 15 1034.6S  
YORKTOWN VA 0748 49 30/ 8/ 13 1034.0R  
DOMINION TERM VA 0748 45 50/ 5/ 9 1034.2R  
KIPTOPEKE VA 0748 47 30/ 9/ 13 N/A  
CAPE HENRY VA 0748 10/ 17/ 19 N/A  
WILLOUBY STN VA 0748 10/ 14/ 17 1033.8R  
S CRANEY ISL VA 0748 20/ 11/ 14 1033.5R  
CAPE HENRY BUOY 0800 44 N/A 4/ 7 2/15  
CAPE CHARLES BUO 0751 44 N/A 4/ 8 2/14  
64NM E OF VA BCH 0750 51 50 20/ 6/ 8 1031.8F 5/ 6 5/ 6  
DUCK PIER NC 0748 46 10/ 10/ 13 1031.6F  
44100 DUCK FRF 0745 48 N/A 4/15 2/15  
44056 DUCK FRF 0800 47 N/A 4/ 6 2/15  
OREGON INLET NC 0742 47 66 340/ 10/ 14 1031.8F  
HATTERAS NC 0748 57 61 40/ 5/ 8 1031.3F  
DIAMOND SHLS NC 0750 66 74 350/ 10/ 12 1031.3F 4/ 9 3/ 9  
CAPE LOOKOUT NC 0800 340/ 1/ 2 1031.3F  

 
 
 
CLICK HERE TO GO TO PREVIOUS BULLETINS.

The Nexlab VA Page
The Nexlab NC Page
The Nexlab MD Page Main Text Page